Shreveport Downtown, LA

6:58 PM CDT on October 21, 2017 (GMT -0500)
Shreveport Downtown

Weather History for KDTN - December, 2013

Change the Weather History Date:

Saturday, December 28, 2013

  Actual Average (KBAD) Record (KBAD)
Temperature  
Mean Temperature 46 °F -  
Max Temperature 53 °F 55 °F 75 °F (2016)
Min Temperature 39 °F 35 °F 26 °F (1997)
Degree Days  
Heating Degree Days 19    
Moisture  
Dew Point 34 °F    
Average Humidity 68    
Maximum Humidity 86    
Minimum Humidity 37    
Precipitation  
Precipitation 0.00 in - - ()
Sea Level Pressure  
Sea Level Pressure 30.17 in    
Wind  
Wind Speed 0 mph (NNW)    
Max Wind Speed 4 mph    
Max Gust Speed -    
Visibility 10 miles    
Events      
Averages and records for this station are not official NWS values.
T = Trace of Precipitation, MM = Missing Value Source: NWS Daily Summary

Daily Weather History Graph

Daily Weather History Graph

Search for Another Location

Airport or City:

Trip Planner

Search our weather history database for the weather conditions in past years. The results will help you decide how hot, cold, wet, or windy it might be!

Date:

Astronomy

Dec. 28, 2013 Rise Set
Actual Time 7:15 AM CST 5:17 PM CST
Civil Twilight 6:48 AM CST 5:44 PM CST
Nautical Twilight 6:17 AM CST 6:15 PM CST
Astronomical Twilight 5:47 AM CST 6:45 PM CST
Moon 3:00 AM CST (12/28) 2:02 PM CST (12/28)
Length of Visible Light 10h 56m
Length of Day
10h 01m
Waning Crescent, 19% of the Moon is Illuminated
Dec 28
Waning Crescent
Jan 1
New
Jan 7
First Quarter
Jan 15
Full
Jan 23
Last Quarter

Hourly Weather History & Observations

Time (CST) Temp. Windchill Dew Point Humidity Pressure Visibility Wind Dir Wind Speed Gust Speed Precip Events Conditions
12:53 AM 42.1 °F - 37.9 °F 85% 30.33 in 10.0 mi Calm Calm - N/A   Overcast
1:53 AM 42.1 °F - 37.9 °F 85% 30.32 in 9.0 mi Calm Calm - N/A   Mostly Cloudy
2:53 AM 42.1 °F - 37.9 °F 85% 30.31 in 10.0 mi Calm Calm - N/A   Overcast
3:53 AM 42.1 °F - 37.0 °F 82% 30.28 in 10.0 mi Calm Calm - N/A   Overcast
4:53 AM 43.0 °F 41.3 °F 37.0 °F 80% 30.28 in 10.0 mi West 3.5 mph - N/A   Overcast
5:53 AM 43.0 °F - 37.9 °F 82% 30.27 in 10.0 mi Calm Calm - N/A   Mostly Cloudy
6:53 AM 43.0 °F 41.3 °F 37.0 °F 80% 30.25 in 10.0 mi NNE 3.5 mph - N/A   Clear
7:53 AM 42.1 °F - 37.0 °F 82% 30.26 in 10.0 mi Calm Calm - N/A   Clear
8:53 AM 44.1 °F - 37.9 °F 79% 30.26 in 10.0 mi Calm Calm - N/A   Clear
9:53 AM 46.9 °F - 35.1 °F 63% 30.26 in 10.0 mi Calm Calm - N/A   Clear
10:53 AM 48.0 °F - 36.0 °F 63% 30.25 in 10.0 mi Calm Calm - N/A   Clear
11:53 AM 51.1 °F - 35.1 °F 54% 30.21 in 10.0 mi Calm Calm - N/A   Clear
12:53 PM 52.0 °F - 34.0 °F 50% 30.16 in 10.0 mi Calm Calm - N/A   Clear
1:53 PM 52.0 °F - 28.9 °F 41% 30.12 in 10.0 mi Calm Calm - N/A   Clear
2:53 PM 53.1 °F - 30.9 °F 43% 30.09 in 10.0 mi Calm Calm - N/A   Clear
3:53 PM 53.1 °F - 30.0 °F 41% 30.08 in 10.0 mi Calm Calm - N/A   Clear
4:53 PM 53.1 °F - 27.0 °F 37% 30.06 in 10.0 mi Calm Calm - N/A   Clear
5:53 PM 45.0 °F - 28.9 °F 53% 30.05 in 10.0 mi Calm Calm - N/A   Clear
6:53 PM 44.1 °F - 30.0 °F 58% 30.06 in 10.0 mi Calm Calm - N/A   Clear
7:53 PM 41.0 °F - 32.0 °F 70% 30.04 in 10.0 mi Calm Calm - N/A   Clear
8:53 PM 41.0 °F - 32.0 °F 70% 30.04 in 10.0 mi Calm Calm - N/A   Clear
9:53 PM 39.9 °F - 34.0 °F 79% 30.03 in 10.0 mi Calm Calm - N/A   Clear
10:53 PM 41.0 °F - 34.0 °F 76% 30.02 in 10.0 mi Calm Calm - N/A   Clear
11:53 PM 41.0 °F - 37.0 °F 86% 30.03 in 9.0 mi Calm Calm - N/A   Clear